Weather Service Report


622 
ASUS41 KGYX 231210
RWRGYX
WEATHER ROUNDUP FOR MAINE AND NEW HAMPSHIRE
NATIONAL WEATHER SERVICE GRAY ME
700 AM EST THU FEB 23 2017

MEZ002-005-006-010-012-015-018-020-021-024-026-027-029-231300-
MAINE
  
CITY           SKY/WX    TMP DP  RH WIND       PRES   REMARKS
PORTLAND       CLOUDY    30  26  85 CALM      29.87S                  
6HR MIN TEMP:  26; 6HR MAX TEMP:  30;                                

SANFORD        CLEAR     25  24  96 CALM      29.87R                  
BAR HARBOR     FOG       27  26  96 CALM      29.88F VSB<1/4          
WISCASSET      FOG       29  27  92 CALM      29.88S VSB<1/4          
6HR MIN TEMP:  25; 6HR MAX TEMP:  29;                                

ROCKLAND       FOG       30  28  93 CALM      29.88R VSB 1/8          
FRYEBURG       MOCLDY    26  25  96 CALM      29.85S                  
6HR MIN TEMP:  22; 6HR MAX TEMP:  27;                                

LEWISTONAUBURN MOCLDY    25  24  96 SE3       29.85F                  
AUGUSTA        CLOUDY    28  26  92 S3        29.85F FOG              
6HR MIN TEMP:  26; 6HR MAX TEMP:  31;                                

WATERVILLE     MOCLDY    28  27  93 SW6       29.82F                  
BANGOR         FOG       29  29 100 S6        29.85F VSB 1/4          
6HR MIN TEMP:  22; 6HR MAX TEMP:  29;                                

GREENVILLE       N/A     34  30  85 CALM      29.75S                  
6HR MIN TEMP:  29; 6HR MAX TEMP:  35;                                

MILLINOCKET    CLOUDY    21  19  92 CALM      29.82S                  
6HR MIN TEMP:  17; 6HR MAX TEMP:  25;                                

HOULTON        CLOUDY    26  23  88 S5        29.79F                  
6HR MIN TEMP:  16; 6HR MAX TEMP:  29;                                

PRESQUE ISLE     N/A    N/A N/A N/A MISG        N/A                   
6HR MIN TEMP:  16; 6HR MAX TEMP:  21;                                

FRENCHVILLE    CLOUDY    27  23  85 SE7       29.73F                  
6HR MIN TEMP:  26; 6HR MAX TEMP:  31;                                

CARIBOU        PTCLDY    24  21  88 CALM      29.76F FOG              
6HR MIN TEMP:  20; 6HR MAX TEMP:  27;                                

$$

NHZ002-005-008-009-011-012-014-231300-
NEW HAMPSHIRE
  
CITY           SKY/WX    TMP DP  RH WIND       PRES   REMARKS
PORTSMOUTH     PTCLDY    29  27  94 CALM      29.85S                  
ROCHESTER      CLEAR     31  28  89 CALM      29.85S                  
6HR MIN TEMP:  28; 6HR MAX TEMP:  33;                                

NASHUA         PTCLDY    32  31  96 NW3       29.88R                  
MANCHESTER     MOCLDY    35  30  82 W3        29.85S                  
6HR MIN TEMP:  33; 6HR MAX TEMP:  37;                                

CONCORD        PTCLDY    30  28  92 CALM      29.86S                  
6HR MIN TEMP:  28; 6HR MAX TEMP:  33;                                

LACONIA        CLEAR     28  27  96 MISG      29.85S                  
PLYMOUTH       MOCLDY    28  27  99 CALM      29.85F FOG              
BERLIN         CLEAR     24  20  84 CALM      29.80F                  
6HR MIN TEMP:  21; 6HR MAX TEMP:  25;                                

WHITEFIELD     PTCLDY    30  25  81 CALM      29.80S                  
6HR MIN TEMP:  24; 6HR MAX TEMP:  30;                                

JAFFREY        CLEAR     31  30  96 S3        29.85R                  
6HR MIN TEMP:  31; 6HR MAX TEMP:  35;                                

KEENE          CLEAR     29  28  96 CALM      29.87S                  
LEBANON        CLEAR     29  28  96 CALM      29.84S                  
6HR MIN TEMP:  28; 6HR MAX TEMP:  34;                                

MT WASHINGTON  FOG       34  34 100 W41         N/A  VSB 0   WCI  18  
6HR MIN TEMP:  31; 6HR MAX TEMP:  35;                                

$$

VTZ005-007-008-231300-
VERMONT
  
CITY           SKY/WX    TMP DP  RH WIND       PRES   REMARKS
ST JOHNSBURY     N/A     29  27  92 MISG      29.80F                  
MONTPELIER     CLOUDY    32  31  96 CALM      29.82S                  
BURLINGTON     MOCLDY    47  38  71 S13       29.74F                  
$$

MAZ007-012-024-CTZ003-RIZ002-NYZ038-NYZ072-231300-
SOUTHERN NEW ENGLAND AND NY
  
CITY           SKY/WX    TMP DP  RH WIND       PRES   REMARKS
BOSTON         MOCLDY    39  38  96 S6        29.87S                  
WORCESTER      CLEAR     43  35  73 W10       29.85R                  
NANTUCKET      FOG       42  41  96 SW5       29.91S VSB<1/4          
PROVIDENCE     PTCLDY    37  35  92 S3        29.89R                  
HARTFORD       PTCLDY    35  33  92 CALM      29.87S                  
ALBANY         PTCLDY    43  36  76 CALM      29.83S                  
NEW YORK CITY  PTCLDY    44  40  85 CALM      29.89S                  
$$

ANZ081-ANZ082-ANZ150-NHZ014-MEZ023>029-231300-
COASTAL MARINE OBSERVATIONS
  
STATION/POSITION TIME  TEMP    WIND        PRES    WAVE
                       AIR SEA DIR/SP/G            HT/PER
                 (UTC) (F)     (DEG/KT/KT) (MB)    (FT/S)
MOUNT DESERT ROC 1200   40                 1012.1R
MATINICUS ROCK   1200   40     160/ 13/ 14 1011.1R
ISLE OF SHOALS   1200   38     190/  2/  2 1011.0F
JEFFREYS LEDGE   1106      43                N/A     3/10
CASHES LEDGE BUO 1150   42 43              1011.5F   3/11
GEORGES BANK BUO 1050   45 44              1014.6    5/11
$$

.............KEY..............
   WCI - WIND CHILL
   TC  - TEMPERATURE IN CELSIUS
   VSB - VISIBILITY IN MILES
   HX  - HEAT INDEX
   FAIR- INDICATES FEW OR NO CLOUDS BELOW 12,000 FT, WITH NO 
         SIGNIFICANT WEATHER AND/OR OBSTRUCTIONS TO VISIBILITY.


  

Return to Home page


Western Regional Climate Center, wrcc@dri.edu